ONEWEB-0340 (49206 NORAD) Tracking and Keplerian Element Data

This shows tracking and keplerian element data for the satellite.

Feedback or suggestion? Click here.




ElementValue
Catalog49206
NameONEWEB-0340
Epoch Orbit355
Epoch Day300.58334491
Epoch Year2021
RAAN314.0915
Inclination87.5906
Eccentricity0.0020356
Argument of Perigee148.6708
Mean Anonmoly77.7607
Mean Motion14.53475408
Decay Rate-0.0140488
L11 49206U 21083W 21300.58334491 -.01404880 00000-0 -36458+0 0 9990
L22 49206 87.5906 314.0915 0020356 148.6708 77.7607 14.53475408 3559

Live tracking and technical data element details for ONEWEB-0340 (NORAD 49206). ONEWEB-0340 can be tracked NOW for your location showing map with azimuth and elevation plus other details from your city location.

Track the satellite on the map from your city or location and see movement details for azimuth, elevation, latitude, longitude, range, height, and movement on the map or in text.







IsCatalogInMostPopularTable: catalog: 49206, numindb: 11
Update: records affected: 1



GetName: 49206 ONEWEB-0340

Hit Count: updated at: Thu, 28 Oct 2021 10:47:10 GMT